Lid_Strength_Index
4 4 5 5 5 5 5 5 5 5 5 5 5 5 5 5 4 4 4 3 3 3 1 1 0 -1 -1 -1 -2 -2 -2 -2 -1 -1 -1 -1 -1 -1 -1 -1 -1 -1 -1
5 5 5 5 5 6 6 6 6 6 6 6 6 5 6 5 5 5 5 4 4 4 3 2 1 1 0 -0 -1 -1 -2 -2 -1 -1 -1 0 -1 -1 -1 -1 -1 -1 -1
5 5 5 6 6 6 6 6 6 6 6 6 6 6 6 6 6 5 5 5 4 4 4 3 2 2 1 1 0 -0 -1 -1 -1 -1 -0 -1 -2 -1 -1 -1 -1 -1 -1
6 6 6 6 7 7 7 7 7 7 7 7 7 6 6 6 6 6 5 5 5 4 4 4 3 2 2 1 1 0 -0 -1 -1 -1 -1 -2 -2 -1 -1 -1 -1 -1 -1
7 7 7 7 7 7 7 8 7 7 7 7 7 7 6 6 6 6 5 5 4 4 4 4 3 3 3 1 1 0 -0 -1 -1 -1 -1 -1 -2 -2 -2 -1 -1 -1 -1
8 7 7 7 7 8 8 8 8 7 8 8 8 8 7 6 5 5 5 4 5 4 4 4 3 3 3 3 2 1 0 -0 -0 -1 -1 -1 -2 -2 -1 -1 -1 -1 0
8 8 8 8 8 8 9 9 9 9 8 8 8 7 6 5 6 6 5 5 5 5 4 4 4 4 4 3 3 2 1 0 1 -0 -1 -1 -1 -2 -2 -1 -1 -1 -1
8 8 8 8 9 9 9 9 9 9 9 9 10 8 8 6 6 5 5 5 6 5 6 5 5 5 5 4 4 4 3 2 1 1 0 0 -0 -1 -1 -2 -2 -1 -1
9 9 9 9 9 9 9 10 10 11 10 9 9 9 9 9 9 6 7 6 6 6 6 6 6 6 5 5 5 5 5 4 3 3 2 2 1 0 -0 -1 -2 -1 -1
10 10 10 10 10 9 10 10 10 10 10 10 9 9 8 9 11 10 7 7 7 7 7 6 6 6 6 6 5 5 5 5 5 4 4 3 2 2 1 0 -1 -2 -1
10 10 10 10 10 10 10 11 10 10 9 10 9 9 10 10 10 11 12 9 8 7 7 7 7 6 6 6 6 6 6 6 6 6 5 5 4 3 2 1 0 -1 -2
10 10 11 10 11 11 11 10 10 11 10 9 9 10 10 11 11 11 12 11 11 9 8 7 7 7 7 7 6 7 7 7 6 5 5 5 4 4 3 2 1 -0 -1
10 11 11 11 11 11 11 10 10 10 10 10 10 10 10 10 10 11 11 12 12 10 8 7 7 7 7 7 7 8 8 7 5 4 4 4 4 4 4 3 2 1 -0
10 11 11 11 12 11 10 10 10 10 10 10 11 10 11 10 10 10 11 12 13 12 10 10 7 7 7 7 7 8 7 7 6 5 4 4 4 4 4 3 2 2 1
11 11 11 11 12 11 11 11 10 10 10 10 10 10 11 10 10 10 10 11 12 14 13 10 10 8 7 7 7 7 7 7 6 5 4 4 5 4 3 3 3 3 2
11 11 12 12 12 11 11 11 11 11 11 11 11 11 11 11 10 10 10 10 11 12 13 10 9 8 8 8 8 8 8 8 7 6 5 5 5 4 4 4 4 4 3
11 11 12 12 11 11 11 11 11 11 11 11 11 11 11 10 11 10 10 10 11 11 12 11 9 9 11 10 10 8 8 8 8 7 6 6 6 5 5 5 5 4 4
12 12 12 12 11 11 11 11 11 11 12 12 12 12 11 11 11 10 10 11 11 10 11 12 11 11 11 10 10 10 9 8 9 8 7 7 6 6 6 6 6 5 5
14 13 13 12 12 12 12 11 11 11 11 12 12 12 12 11 11 11 11 11 11 11 11 12 12 11 11 11 10 10 10 9 9 9 8 8 8 7 7 7 6 6 6
14 14 14 14 13 13 13 12 11 11 12 12 12 12 12 12 12 11 11 11 11 11 12 12 12 11 10 11 10 11 11 9 10 10 9 9 9 9 8 7 7 7 6
14 14 15 15 14 13 12 11 11 12 12 13 13 12 12 12 12 11 11 11 11 12 12 12 12 11 11 12 13 12 12 11 10 11 10 10 10 11 11 8 8 7 6
15 15 15 15 15 13 12 12 11 12 13 13 13 13 12 12 12 12 11 11 11 11 11 11 11 12 12 13 13 13 12 12 12 10 11 10 10 11 11 11 8 7 7
15 16 16 15 15 14 14 13 12 12 13 13 14 13 13 12 12 12 12 12 12 11 12 12 13 13 13 13 14 14 13 13 12 12 11 11 11 11 11 12 8 8 8
16 16 16 16 15 15 15 13 13 13 13 14 14 14 13 13 12 12 12 13 12 12 13 14 13 14 13 14 14 14 14 13 12 12 12 12 11 11 11 11 10 9 8
16 15 15 16 17 15 15 14 12 13 14 14 14 14 14 13 13 12 13 13 13 13 14 14 15 15 15 15 15 14 12 13 12 12 11 11 12 12 11 12 12 11 11
15 15 16 16 17 15 16 14 13 13 14 14 14 14 15 14 13 13 13 14 14 14 15 15 15 16 16 16 16 15 14 14 12 12 12 12 12 13 12 12 12 13 13